Weather History for Lorain / Elyria, OH

Change the Weather History Date:

Friday, February 15, 2013

  Actual Average (KCLE) Record (KCLE)
Temperature  
Mean Temperature 32 °F 30 °F  
Max Temperature 36 °F 37 °F 67 °F (1954)
Min Temperature 28 °F 24 °F -4 °F (1963)
Degree Days  
Heating Degree Days 33 35  
Month to date heating degree days 534  
Since 1 July heating degree days 3786  
Cooling Degree Days 0 0  
Month to date cooling degree days 0  
Year to date cooling degree days 0  
Moisture  
Dew Point 23 °F    
Average Humidity 73    
Maximum Humidity 86    
Minimum Humidity 58    
Precipitation  
Precipitation 0.00 in 0.08 in 1.22 in (1990)
Month to date precipitation 1.21  
Year to date precipitation 3.93  
Snow  
Snow 0.00 in 0.50 in - ()
Month to date snowfall 8.1  
Since 1 July snowfall 45.4  
Snow Depth -    
Sea Level Pressure  
Sea Level Pressure 30.05 in    
Wind  
Wind Speed 10 mph (NW)    
Max Wind Speed 14 mph    
Max Gust Speed 22 mph    
Visibility 8 miles    
Events Snow    
T = Trace of Precipitation, MM = Missing Value Source: NWS Daily Summary

Daily Weather History Graph

Daily Weather History Graph

Search for Another Location

Airport:

Trip Planner

Search our weather history database for the weather conditions in past years. The results will help you decide how hot, cold, wet, or windy it might be!

Date:

Astronomy

Feb. 15, 2013 Rise Set
Actual Time 7:23 AM EST 6:02 PM EST
Civil Twilight 6:54 AM EST 6:31 PM EST
Nautical Twilight 6:22 AM EST 7:03 PM EST
Astronomical Twilight 5:50 AM EST 7:35 PM EST
Moon 9:54 AM EST (2/15) No Moon Set
Length of Visible Light 11h 36m
Length of Day
10h 39m
Waxing Crescent, 30% of the Moon is Illuminated
Feb 15
Waxing Crescent
Feb 17
First Quarter
Feb 25
Full
Mar 4
Last Quarter
Mar 11
New

Hourly Weather History & Observations

Time (EST) Temp. Windchill Dew Point Humidity Pressure Visibility Wind Dir Wind Speed Gust Speed Precip Events Conditions
12:53 AM 36.0 °F 27.1 °F 26.1 °F 67% 29.92 in 10.0 mi West 13.8 mph 21.9 mph N/A   Overcast
1:53 AM 35.1 °F 26.4 °F 26.1 °F 70% 29.92 in 10.0 mi West 12.7 mph - N/A   Clear
2:53 AM 34.0 °F 26.0 °F 26.1 °F 73% 29.94 in 10.0 mi West 10.4 mph - N/A   Clear
3:53 AM 33.1 °F 24.9 °F 25.0 °F 72% 29.94 in 10.0 mi West 10.4 mph - N/A   Clear
4:53 AM 32.0 °F 24.2 °F 24.1 °F 73% 29.96 in 10.0 mi West 9.2 mph - N/A   Clear
5:53 AM 30.9 °F 23.5 °F 24.1 °F 76% 29.98 in 10.0 mi West 8.1 mph - N/A   Partly Cloudy
6:53 AM 30.9 °F 22.8 °F 24.1 °F 76% 30.00 in 10.0 mi West 9.2 mph - N/A   Clear
7:38 AM 32.0 °F 25.6 °F 24.8 °F 75% 30.00 in 10.0 mi West 6.9 mph - N/A   Overcast
7:53 AM 32.0 °F 25.6 °F 24.1 °F 73% 30.02 in 10.0 mi West 6.9 mph - N/A   Overcast
8:17 AM 32.0 °F 25.6 °F 24.8 °F 75% 30.01 in 10.0 mi West 6.9 mph - N/A   Scattered Clouds
8:30 AM 32.0 °F 24.8 °F 24.8 °F 75% 30.01 in 10.0 mi West 8.1 mph - N/A   Mostly Cloudy
8:53 AM 32.0 °F 24.8 °F 25.0 °F 75% 30.04 in 10.0 mi WSW 8.1 mph - N/A   Overcast
9:53 AM 33.1 °F 25.5 °F 24.1 °F 70% 30.06 in 10.0 mi West 9.2 mph - N/A   Overcast
10:53 AM 32.0 °F 24.8 °F 25.0 °F 75% 30.07 in 7.0 mi NW 8.1 mph - N/A   Overcast
11:14 AM 30.2 °F 21.3 °F 26.6 °F 86% 30.05 in 1.8 mi NW 10.4 mph - 0.00 in Snow Light Snow
11:31 AM 30.2 °F 21.3 °F 26.6 °F 86% 30.05 in 3.0 mi NNW 10.4 mph - 0.00 in Snow Light Snow
11:43 AM 30.2 °F 23.4 °F 26.6 °F 86% 30.05 in 2.5 mi NW 6.9 mph - 0.00 in Snow Light Snow
11:50 AM 30.2 °F 23.4 °F 26.6 °F 86% 30.05 in 4.0 mi NW 6.9 mph - 0.00 in Snow Light Snow
11:53 AM 30.9 °F 24.3 °F 26.1 °F 82% 30.07 in 4.0 mi NW 6.9 mph - 0.00 in Snow Light Snow
12:53 PM 32.0 °F 25.6 °F 23.0 °F 69% 30.06 in 10.0 mi NW 6.9 mph - 0.00 in   Overcast
1:53 PM 30.9 °F 22.8 °F 23.0 °F 72% 30.06 in 10.0 mi NNW 9.2 mph - N/A   Overcast
2:53 PM 30.0 °F 20.0 °F 21.9 °F 72% 30.06 in 9.0 mi NNW 12.7 mph - N/A   Overcast
3:53 PM 28.9 °F 19.2 °F 21.0 °F 72% 30.08 in 6.0 mi North 11.5 mph - 0.00 in Snow Light Snow
4:26 PM 28.4 °F 19.7 °F 21.2 °F 74% 30.06 in 4.0 mi North 9.2 mph - 0.00 in Snow Light Snow
4:53 PM 28.0 °F 20.0 °F 19.9 °F 72% 30.10 in 8.0 mi NNW 8.1 mph - 0.00 in   Overcast
5:53 PM 28.0 °F 24.2 °F 21.0 °F 75% 30.10 in 10.0 mi NW 3.5 mph - N/A   Overcast
6:53 PM 28.9 °F 21.1 °F 21.0 °F 72% 30.11 in 10.0 mi NNW 8.1 mph - N/A   Overcast
7:08 PM 28.4 °F 20.4 °F 21.2 °F 74% 30.09 in 10.0 mi NW 8.1 mph - N/A   Overcast
7:25 PM 28.4 °F 20.4 °F 21.2 °F 74% 30.09 in 6.0 mi NNW 8.1 mph - 0.00 in Snow Light Snow
7:53 PM 28.9 °F 22.8 °F 21.0 °F 72% 30.12 in 10.0 mi NNW 5.8 mph - 0.00 in   Overcast
8:29 PM 28.4 °F 24.6 °F 21.2 °F 74% 30.09 in 10.0 mi NW 3.5 mph - N/A   Overcast
8:42 PM 28.4 °F 21.2 °F 17.6 °F 64% 30.09 in 10.0 mi North 6.9 mph - N/A   Overcast
8:53 PM 28.9 °F 21.9 °F 18.0 °F 64% 30.12 in 10.0 mi North 6.9 mph - N/A   Overcast
9:53 PM 28.0 °F 20.8 °F 18.0 °F 66% 30.13 in 10.0 mi NNW 6.9 mph - N/A   Overcast
10:53 PM 28.0 °F 18.6 °F 16.0 °F 61% 30.12 in 10.0 mi North 10.4 mph - N/A   Overcast
11:53 PM 28.0 °F 20.0 °F 15.1 °F 58% 30.12 in 10.0 mi NW 8.1 mph - N/A   Overcast